Regional Weather Roundup
Issued by NWS Kansas City/Pleasant Hill, MO

Home | Current Version | Previous Version | Text Only | Print | Product List | Glossary On
Versions: 1 2 3 4 5 6 7 8 9 10 11 12 13 14 15 16 17 18 19 20 21 22 23 24 25 26 27 28 29 30 31 32 33 34 35 36 37 38 39 40 41 42 43 44 45 46 47 48 49
000
ASUS43 KEAX 030110
RWREAX

WEATHER ROUNDUP FOR EASTERN KANSAS AND NORTHWEST MISSOURI
NATIONAL WEATHER SERVICE KANSAS CITY/PLEASANT HILL MO
800 PM CDT SUN AUG 02 2015

KSZ040-057-103>105-MOZ028-029-037-043-030200-
...KANSAS CITY METROPOLITAN AREA...

CITY           SKY/WX    TMP DP  RH WIND       PRES   REMARKS
K.C. INTL      MOCLDY    84  74  71 SW5       29.85R HX  91
K.C. DOWNTOWN  PTCLDY    90  69  50 W7        29.83R HX  94
LEES SUMMIT    CLEAR     86  68  54 SW3       29.86R
OLATHE - IXD   PTCLDY    88  69  53 SW8       29.86R HX  92
OLATHE - OJC   PTCLDY    86  69  56 SW3       29.85R HX  90
LAWRENCE       PTCLDY    88  69  53 SW5       29.84R HX  92

$$

MOZ001>008-011>017-020>025-030>033-038>040-044>046-053-054-030200-
...NORTHERN AND CENTRAL MISSOURI...

CITY           SKY/WX    TMP DP  RH WIND       PRES   REMARKS
ST. JOSEPH     PTCLDY    84  76  76 SW6       29.83R HX  93
MOSBY          PTCLDY    88  68  51 W3        29.84R HX  91
WARRENSBURG    CLEAR     84  64  51 S3        29.85R
WHITEMAN AFB   CLEAR     86  69  57 SW8       29.85R HX  90
CLINTON        CLEAR     84  70  61 S5        29.85R
SEDALIA        CLEAR     84  67  56 SW7       29.86R
WARSAW         NOT AVBL
CHILLICOTHE      N/A     85  74  69 S6        29.81F HX  92
KIRKSVILLE     MOCLDY    82  71  69 W3        29.85R

$$

MOZ041-047>049-056>058-063>065-088>090-097-030200-
...EASTERN AND SOUTHERN MISSOURI...

CITY           SKY/WX    TMP DP  RH WIND       PRES   REMARKS
ST. LOUIS INTL PTCLDY    90  66  45 W8        29.84S HX  92
SPIRIT OF STL  CLEAR     84  72  67 S5        29.83R
COLUMBIA       CLEAR     82  71  69 SW7       29.86R
JEFFERSON CITY CLEAR     88  66  48 SW5       29.83S HX  90
ROLLA          CLEAR     80  71  74 SW5       29.87S
OSAGE BEACH    CLEAR     84  70  61 SW3       29.87R
SPRINGFIELD    CLEAR     84  67  56 SW6       29.90F
BRANSON        PTCLDY    84  66  54 W3        29.93F
JOPLIN         CLEAR     85  62  46 SW9       29.90S
WEST PLAINS    CLEAR     83  69  62 SW3       29.92F

$$

IAZ060-094-KSZ022-034>040-054-083-096-NEZ052-066-093-030200-
...KANSAS...SOUTHEAST NEBRASKA AND IOWA...

CITY           SKY/WX    TMP DP  RH WIND       PRES   REMARKS
TOPEKA         MOCLDY    89  71  55 S5        29.84R HX  95
MANHATTAN      PTCLDY    88  71  57 SW6       29.83R HX  94
EMPORIA        CLEAR     85  69  58 SW9       29.86F
CHANUTE        CLEAR     86  65  49 SW8       29.87F
WICHITA        PTCLDY    86  69  56 S8        29.87S HX  90
OMAHA          MOCLDY    87  76  69 N7        29.80R HX  97
LINCOLN        CLOUDY    88  74  63 W15       29.79F HX  96
FALLS CITY     MOCLDY    85  75  72 S6        29.81R HX  93
LAMONI         CLOUDY    81  76  84 S9        29.81F
DES MOINES     MOCLDY    77  64  64 S5        29.79S

$$



USA.gov is the U.S. government's official web portal to all federal, state and local government web resources and services.